Other Surface Observations
Issued by NWS

Home | Current Version | Previous Version | Text Only | Print | Product List | Glossary On
Versions: 1 2 3 4 5 6 7 8 9 10 11 12 13 14 15 16 17 18 19 20 21 22 23 24 25 26 27 28 29 30 31 32 33 34 35 36 37 38 39 40 41 42 43 44 45 46 47 48 49 50
509
SXUS52 KTAE 261419
OSOTAE
OSOTAE
North Florida/South Alabama/Southwest Georgia Weather Roundup
National Weather Service Tallahassee Florida
1000 AM EDT FRI MAY 26 2017

Note: "fair" indicates few or no clouds below 12,000 feet with no
significant weather and/or obstructions to visibility.

!FLZ017-115-028-034-025-261500
...North Florida...

CITY           SKY/WX    TMP DP  RH WIND       PRES   REMARKS
TALLAHASSEE    SUNNY     74  61  63 CALM      30.08R
APALACHICOLA   SUNNY     77  65  66 E5        30.07R
PERRY          SUNNY     73  60  62 CALM      30.09R
CROSS CITY     SUNNY     75  57  53 NE3       30.08R
JACKSONVILLE   SUNNY     76  56  49 NW6       30.07R
$$

!FLZ112-006-005-002-011-261500
...Florida Panhandle...

CITY           SKY/WX    TMP DP  RH WIND       PRES   REMARKS
MARIANNA       SUNNY     75  61  61 CALM      30.06R
BONIFAY        FAIR      74  65  73 CALM      30.07R
PANAMA CITY NW FAIR      76  61  59 CALM      30.06R
TYNDALL AFB    SUNNY     75  62  63 SE3       30.07R
TYND DRONE APT FAIR      76  65  70 E5        30.07R
DE FUNIAK SPR  FAIR      74  61  62 SW5       30.07R
EGLIN AFB      SUNNY     77  60  55 SW7       30.06R
DESTIN         SUNNY     80  62  54 SE6       30.05R
HURLBURT       SUNNY     78  57  47 SE8       30.04R
CRESTVIEW      SUNNY     76  61  59 VRB3      30.07R
PENSACOLA      SUNNY     79  57  46 S8        30.05R
$$

!ALZ063-066-261500
...South Alabama...

CITY           SKY/WX    TMP DP  RH WIND       PRES   REMARKS
DOTHAN         SUNNY     73  62  68 W6        30.10R
OZARK CAIRNS   SUNNY     72  63  73 S5        30.07R
FT RUCKER HELI SUNNY     72  62  70 CALM      30.07R
RUCKER HELI 3  FAIR      73  62  67 SW3       30.06R
RUCKER HELI 2  FAIR      72  62  71 CALM      30.06R
FLORALA APT    SUNNY     75  62  64 S6        30.08R
ANDALUSIA      SUNNY     77  63  61 VRB5      30.06R
TROY           SUNNY     70  63  78 S6        30.06S
EUFALA         FAIR      75  58  55 VRB3      30.05S
MOBILE         SUNNY     77  62  59 S12       30.04R
$$

!GAZ120>161-261500
...Southwest and South Central Georgia...

CITY           SKY/WX    TMP DP  RH WIND       PRES   REMARKS
THOMASVILLE    FAIR      73  55  53 CALM      30.09S
BAINBRIDGE     SUNNY     72  61  68 CALM      30.08R
MOODY AFB      SUNNY     75  53  45 CALM      30.07R
VALDOSTA       SUNNY     74  55  51 CALM      30.08R
MOULTRIE       SUNNY     73  55  53 CALM      30.09R
BLAKELY        SUNNY     73  57  56 CALM      30.08S
ALBANY         SUNNY     74  57  55 CALM      30.09S
TIFTON         FAIR      73  53  50 CALM      30.08R
FITZGERALD     FAIR      74  58  58 NW3       30.10S
CORDELE        FAIR      74  57  55 SW3       30.09S
AMERICUS       FAIR      70  54  56 CALM      30.09S
HOMERVILLE     FAIR     N/A N/A N/A CALM      30.08S
$$

!GMZ750-755-770-775-261500
...Coastal and Buoy Obs...

STATION/POSITION TIME  TEMP    WIND        PRES    VSBY  WAVE
                       AIR SEA DIR/SP/G                  HT/PER
                 (UTC) (F)     (DEG/KT/KT) (MB)    (MI)  (FT/S)
KEATON BEACH     1400   72     270/  4/  4 1018.4R
CEDAR KEY        1400   73     100/  4/  4 1019.1R
C TOWER          1400   75     110/  2/  3 1018.8R
APALACHICOLA BUO 1350   75 76   CALM  /  2 1018.7R         3/ 7
PANAMA CITY BUOY 1350   74 76  160/  6/  8 1017.9R         2/ 6
MOBILE BUOY      1400   75 77  160/ 12/ 14 1017.5
ORANGE BCH AL BU 1350   76 76  170/ 10/ 12 1017.3R         2/ 7
$$




USA.gov is the U.S. government's official web portal to all federal, state and local government web resources and services.